Regional Weather Roundup
Issued by NWS Midland/Odessa, TX

Skip options and go directly to product.
Home | Oldest Version | Next Version | Current Version | All | Text Only | Save Text | Print | Product List | Glossary On

Skip product version selection by date and time.   
999
ASUS44 KMAF 161210
RWRMAF
MIDLAND AREA WEATHER ROUNDUP
NATIONAL WEATHER SERVICE MIDLAND TX
700 AM CDT WED APR 16 2014

...IN SOUTHWEST TEXAS AND SOUTHEAST NEW MEXICO...

CITY           SKY/WX    TMP DP  RH WIND       PRES   REMARKS
ALPINE         CLEAR     54  13  19 W12       29.99S
ANDREWS        FAIR      46  16  29 S13       29.89R
ARTESIA        MOCLDY    41   9  26 S10       29.86S WCI  35
BIG SPRING     PTCLDY    49  15  25 S20G26    29.94S
CARLSBAD       MOCLDY    43   9  24 S5        29.86R
DRYDEN           N/A     44  14  29 NE6       29.95S
FORT STOCKTON  CLEAR     46  15  28 SE16      29.89R WCI  39
GUAD PASS      PTCLDY    51  11  20 SW8       29.95S
HOBBS          CLEAR     39  10  30 S8        29.88  WCI  34
MARFA          PTCLDY    36   9  32 NE7       29.99R WCI  30
MIDLAND AIRPK  MOCLDY    50  16  25 S17       29.90S
MIDLAND INTL   MOCLDY    49  17  28 S18       29.90S
ODESSA         MOCLDY    49  15  25 S16G25    29.90S
PECOS          CLEAR     41  14  32 NE7       29.86R WCI  37
PRESIDIO       FAIR      54  13  19 N5        29.91S
SEMINOLE       PTCLDY    40  14  34 S7        29.89S WCI  35
SNYDER         PTCLDY    40  15  35 SE7       29.93S WCI  35
WINK           CLEAR     46  16  30 SE13      29.86S
$$
...OTHER STATIONS IN TEXAS...

CITY           SKY/WX    TMP DP  RH WIND       PRES   REMARKS
ABILENE        PTCLDY    47  20  34 S17G24    29.95F
AMARILLO       CLOUDY    46  10  23 S14       29.80R WCI  40
AUSTIN         PTCLDY    35  33  92 CALM      30.12R
BROWNSVILLE    CLEAR     50  46  86 E3        30.09R
CORPUS CHRISTI PTCLDY    49  41  74 SE7       30.10R
DALLAS FTW     MOCLDY    45  31  58 S9        30.10R
DEL RIO        CLEAR     48  23  37 E12       30.03S
EL PASO        PTCLDY    53  12  19 CALM      29.87S
HOUSTON INT    CLEAR     42  37  82 VRB3      30.17R
LUBBOCK        MOCLDY    46  13  26 S16       29.85F WCI  39
SAN ANGELO     PTCLDY    48  19  31 S13       29.97S
SAN ANTONIO    CLEAR     45  31  58 CALM      30.11R
WACO           CLEAR     45  34  65 S10       30.12R WCI  40
WICHITA FALLS  NOT AVBL
$$
...OTHER LOCATIONS IN NEW MEXICO...

CITY           SKY/WX    TMP DP  RH WIND       PRES   REMARKS
ALAMAGORDO     CLEAR     41   7  24 CALM      29.88F
ALBUQUERQUE    CLEAR     44   8  23 SE7       29.89S
CANNON AFB     CLOUDY    44   7  22 W9        29.83S WCI  39
CLOVIS         CLOUDY    45  10  24 SW15      29.84F WCI  38
HOLLOMAN AFB   PTCLDY    43   4  19 CALM      29.87F
ROSWELL        PTCLDY    43  10  26 S12       29.83F WCI  37
RUIDOSO        CLEAR     45   0  15 CALM      29.98R
SANTA FE       CLEAR     38   7  27 NW5       29.88F WCI  34
TRUTH OR CONSE CLEAR     44   7  21 W9        29.88F WCI  39
TUCUMCARI      PTCLDY    46   9  22 W15       29.77S WCI  40
$$

USA.gov is the U.S. government's official web portal to all federal, state and local government web resources and services.